Location: Northcutt
(34.7304°N, 84.4305°W)
Time: 22:23:20
(UTC+00:00)

A-11 Canister half - Pass Details

Date: 09 October 2022
Orbit: 1524 x 1685 km, 47.3° (Epoch: 05 December)

Event Time Altitude Azimuth Distance (km) Brightness Sun altitude
Rises 03:43:40 0° 295° (WNW) 4,742 12.1 -53.1°
Reaches altitude 10° 03:47:29 10° 282° (WNW) 3,779 11.4 -53.7°
Enters shadow 03:50:12 17° 267° (W) 3,247 10.8 -54.1°
